Location: Unspecified
(0.0000°N, 0.0000°E)
Time: 08:29:23
(UTC+00:00)

Explorer 11/Cluster Stage 4 - Pass Details

Date: 22 July 2020
Orbit: 467 x 1259 km, 28.8° (Epoch: 03 August)

Event Time Altitude Azimuth Distance (km) Brightness Sun altitude
Rises 13:04:54 0° 323° (NW) 3,128 10.0 65.3°
Reaches altitude 10° 13:07:29 10° 335° (NNW) 2,338 9.6 65.0°
Maximum altitude 13:12:14 27° 33° (NNE) 1,641 8.8 64.3°
Drops below altitude 10° 13:17:55 10° 89° (E) 2,827 9.4 63.4°
Sets 13:21:20 0° 100° (E) 3,914 9.9 62.8°
